Location: Brahman Valley
(40.6513°N, 111.8855°W)
Time: 20:34:48
(UTC+00:00)

N. Korean satellite - Pass Details

Date: 24 April 2021
Orbit: 451 x 500 km, 97.2° (Epoch: 07 May)

Event Time Altitude Azimuth Distance (km) Brightness Sun altitude
Rises 11:43:53 0° 36° (NE) 2,536 11.4 -9.8°
Reaches altitude 10° 11:47:20 10° 72° (ENE) 1,635 10.9 -9.2°
Maximum altitude 11:48:27 11° 91° (E) 1,553 10.2 -9.1°
Drops below altitude 10° 11:49:35 10° 110° (ESE) 1,622 9.9 -8.9°
Sets 11:52:56 0° 146° (SE) 2,476 10.3 -8.3°
